This demonstration page uses our WeatherBlox Daily Observations layout. Learn more.

Left ArrowRight Arrow

36.17497, -115.13722

Hourly Observations for April 19, 2017

Temp ( °F °C ) Dew Point ( °F °C ) Humidity (%) Winds ( mph kmh ) Pressure ( in mb ) Visibility ( mi km ) Precip ( " mm )
12:53 am 00:53 Clear 67 19.4 41 5 39 39 NW 14 22 30.00 1016 10 16 N/A
1:53 am 01:53 Clear 63 17.2 42 5.6 47 47 ESE 5 7 30.01 1016 10 16 N/A
2:53 am 02:53 Clear 63 17.2 41 5 45 45 ENE 6 9 30.02 1017 10 16 N/A
3:53 am 03:53 Clear 63 17.2 40 4.4 43 43 N N/A 30.03 1017 10 16 N/A
4:53 am 04:53 Clear 61 16.1 40 4.4 46 46 WNW 3 6 30.03 1017 10 16 N/A
5:53 am 05:53 Clear 61 16.1 40 4.4 46 46 WNW 6 9 30.04 1017 10 16 N/A
6:53 am 06:53 Sunny 61 16.1 39 3.9 44 44 NNW 3 6 30.07 1018 10 16 N/A
7:53 am 07:53 Sunny 64 17.8 38 3.3 38 38 NW 8 13 30.09 1019 10 16 N/A
8:53 am 08:53 Sunny 67 19.4 38 3.3 35 35 N 10 17 30.10 1019 10 16 N/A
9:53 am 09:53 Sunny 70 21.1 37 2.8 30 30 NNE 13 20 30.11 1020 10 16 N/A
10:53 am 10:53 Sunny 72 22.2 36 2.2 27 27 VRB 3 6 30.10 1019 10 16 N/A
11:53 am 11:53 Sunny 75 23.9 34 1.1 22 22 ESE 5 7 30.09 1019 10 16 N/A
12:53 pm 12:53 Sunny 77 25 34 1.1 21 21 VRB 5 7 30.06 1018 10 16 N/A
1:53 pm 13:53 Sunny 77 25 32 undefined 19 19 VRB 6 9 30.04 1017 10 16 N/A
2:53 pm 14:53 Sunny 78 25.6 29 -1.7 16 16 VRB 7 11 30.02 1017 10 16 N/A
3:53 pm 15:53 Sunny 80 26.7 29 -1.7 15 15 N N/A 29.99 1016 10 16 N/A
4:53 pm 16:53 Sunny 80 26.7 30 -1.1 16 16 N N/A 29.98 1015 10 16 N/A
5:53 pm 17:53 Sunny 80 26.7 32 undefined 17 17 ESE 5 7 29.96 1015 10 16 N/A
6:53 pm 18:53 Sunny 79 26.1 33 0.6 19 19 N N/A 29.97 1015 10 16 N/A
7:53 pm 19:53 Clear 78 25.6 33 0.6 19 19 N N/A 29.97 1015 10 16 N/A
8:53 pm 20:53 Clear 76 24.4 26 -3.3 16 16 N 9 15 29.98 1015 10 16 N/A
9:53 pm 21:53 Clear 73 22.8 23 -5 15 15 NW 7 11 29.99 1016 10 16 N/A
10:53 pm 22:53 Clear 72 22.2 26 -3.3 18 18 N N/A 29.98 1015 10 16 N/A
11:53 pm 23:53 Clear 68 20 28 -2.2 22 22 NW 3 6 29.98 1015 10 16 N/A

Powered by AerisWeather